Flag for Cuba Weather past 2 weeks in Holguín, Cuba

Now
73 °F

Clear.


Feels Like: 72 °F
Forecast: 74 / 91 °F
Wind: No wind

Location: Holguin Civ / Mil

Current Time: Oct 2, 2014 at 3:41:18 AM

Latest Report: Oct 2, 2014 at 2:50 AM


Visibility: 10 mi

Pressure: 29.98 "Hg

Humidity: 89%

Dew point: 70 °F

Location of HolguínLocation

Historic Weather in Holguín — Graph

°F

Holguín temperature yesterday

Maximum temperature yesterday: 93 °F (at 2:52 PM)
Minimum temperature yesterday: 72 °F (at 5:50 AM)
Average temperature yesterday: 81 °F

Past Weeks' High & Low Weather Summary

 TemperatureHumidityPressure
High93 °F (Sep 20, 3:50 PM)100% (Sep 20, 3:51 AM)30.04 "Hg (Sep 20, 3:51 AM)
Low70 °F (Sep 17, 1:50 AM)36% (Oct 1, 2:52 PM)29.83 "Hg (Sep 26, 4:03 PM)
Average80 °F77%29.93 "Hg
* Reported Sep 17 1:50 AM — Oct 2 1:50 AM, Holguín, Weather by CustomWeather, © 2014

Note: Actual official high and low records may vary slightly from our data, if they occured in-between our weather recording intervals... More about our weather records

Advertising

Holguín weather history for previous 24 hours

 ConditionsComfort  
Time TempWeatherWind HumidityBarometerVisibility
1:50 AM
Oct 2
73 °FClear.1 mph89%30.01 "Hg10 mi
12:50 AM75 °FClear.5 mph89%30.01 "Hg10 mi
11:50 PM
Oct 1
75 °FClear.5 mph83%30.01 "Hg10 mi
10:50 PM77 °FPassing clouds.2 mph79%30.01 "HgN/A
9:50 PM77 °FPassing clouds.3 mph83%30.01 "HgN/A
8:50 PM79 °FPassing clouds.3 mph79%29.98 "HgN/A
8:01 PM81 °FPassing clouds.6 mph74%29.95 "HgN/A
6:55 PM84 °FPartly sunny.8 mph66%29.95 "HgN/A
5:52 PM88 °FPartly sunny.9 mph55%29.92 "HgN/A
4:51 PM91 °FPartly sunny.5 mph41%29.92 "HgN/A
3:51 PM93 °FPartly sunny.6 mph39%29.92 "HgN/A
2:52 PM93 °FPartly sunny.7 mph36%29.92 "HgN/A
1:53 PM91 °FPartly sunny.6 mph41%29.95 "HgN/A
12:51 PM90 °FPartly sunny.3 mph41%29.98 "HgN/A
11:51 AM88 °FPartly sunny.5 mph49%30.01 "HgN/A
10:51 AM86 °FPartly sunny.5 mph59%30.01 "Hg6 mi
9:50 AM82 °FPartly sunny.5 mph70%30.01 "Hg6 mi
8:50 AM77 °FPartly sunny.6 mph83%29.98 "Hg6 mi
7:50 AM73 °FFog.3 mph89%29.95 "Hg4 mi
6:50 AM72 °FFog.5 mph88%29.95 "Hg4 mi
5:50 AM72 °FFog.5 mph88%29.92 "Hg4 mi
4:50 AM73 °FFog.3 mph89%29.92 "Hg4 mi
3:50 AM73 °FFog.5 mph89%29.92 "Hg4 mi
Weather by CustomWeather, © 2014

See weather overviewHow to use our weather pages